User: anonymous   Login
Location: Iesi
(43.5167°N, 13.2333°E)
Time: 01:01:36
(UTC+00:00)
Language:

Cosmos 389 Rocket - Orbit

View from above orbital plane
View from above orbital plane
View from above satellite
View from above satellite

Ground track
Ground track

The orbit data is extracted from the following two-line orbital elements,

1  4814U 70113B   20292.94158713 +.00001416 +00000-0 +39657-4 0  9998
2  4814 081.1445 008.3221 0023845 203.1182 156.8986 15.35627872722085
Epoch (UTC): 18 October 2020 22:35:53
Eccentricity: 0.0023845
inclination: 81.1445°
perigee height: 443 km
apogee height: 475 km
right ascension of ascending node: 8.3221°
argument of perigee: 203.1182°
revolutions per day: 15.35627872
mean anomaly at epoch: 156.8986°
orbit number at epoch: 72208

The dashed part of the orbit path shows where the satellite is in the earth's shadow,  

DLR